AO-07 1 07530U 74089B 14275.79317001 -.00000042 00000-0 10327-4 0 861 2 07530 101.4856 254.1303 0012373 084.8694 343.8550 12.53607701825000 FO-29 1 24278U 96046B 14275.82798888 .00000038 00000-0 74298-4 0 4906 2 24278 098.5153 274.8329 0350631 018.5340 098.5752 13.53031011895220 SO-33 1 25509U 98061B 14274.50017363 .00001429 00000-0 26918-3 0 8521 2 25509 031.4320 277.9738 0349099 325.8521 171.3077 14.29647676832370 RS-22 1 27939U 03042A 14275.78599515 .00001740 00000-0 33000-3 0 9178 2 27939 097.8182 084.6492 0013795 122.1657 238.0892 14.65369413588486 HO-68 1 36122U 09072B 14275.73504070 -.00000043 00000-0 00000 0 0 29 2 36122 100.2363 324.2751 0007683 351.7022 008.3946 13.16318520230587 AO-73 1 39444U 13066AE 14274.75009214 .00002707 00000-0 36540-3 0 2727 2 39444 097.7609 341.7395 0060162 256.8017 102.6549 14.78661388 45211 EO-79 1 40025U 14033R 14275.66686400 .00003388 00000-0 39793-3 0 3076 2 40025 097.9717 170.4823 0012507 313.7104 046.3137 14.85540574 15544 UO-11 1 14781U 84021B 14275.74581827 .00001095 00000-0 14530-3 0 6254 2 14781 097.8403 333.7139 0008968 181.7299 178.3885 14.81771731643891 AO-16 1 20439U 90005D 14275.81486594 .00000225 00000-0 99217-4 0 1393 2 20439 098.5141 211.1564 0010716 195.2271 218.4931 14.32396006289898 LO-19 1 20442U 90005G 14274.79752871 .00000225 00000-0 98653-4 0 748 2 20442 098.4849 210.4912 0011848 187.2913 172.8100 14.32595112289942 AO-27 1 22825U 93061C 14274.84351647 .00000204 00000-0 96940-4 0 7855 2 22825 098.6729 220.4055 0008013 353.1790 059.9191 14.29753141 96028 IO-26 1 22826U 93061D 14274.80604098 .00000229 00000-0 10591-3 0 5439 2 22826 098.6671 220.5709 0008409 344.8141 015.2787 14.30057252 96150 GO-32 1 25397U 98043D 14275.44341433 .00000111 00000-0 67502-4 0 4650 2 25397 098.4823 229.4967 0001565 048.8351 100.3411 14.23465871843126 NO-44 1 26931U 01043C 14275.81363531 .00000209 00000-0 11257-3 0 7200 2 26931 067.0502 120.9149 0007376 275.8062 084.2198 14.30157554678998 SO-50 1 27607U 02058C 14275.36029588 .00001923 00000-0 30460-3 0 5310 2 27607 064.5560 265.6022 0060524 342.1105 017.7864 14.73950943633275 CO-55 1 27844U 03031E 14275.25957413 .00000374 00000-0 19053-3 0 386 2 27844 098.6992 282.4958 0008881 331.2357 090.5441 14.21569648583798 CO-57 1 27848U 03031J 14275.51206279 .00000339 00000-0 17571-3 0 9817 2 27848 098.7086 282.5145 0008914 338.1608 148.1372 14.21248806583746 AO-51 1 28375U 04025K 14274.83074411 .00000514 00000-0 16499-3 0 9589 2 28375 098.2609 218.1603 0083507 030.9618 329.6457 14.41441128539274 CP3 1 31129U 07012N 14275.66458073 .00002299 00000-0 51118-3 0 8646 2 31129 097.9459 248.2782 0098946 036.9954 016.8270 14.54903261395664 CO-65 1 32785U 08021C 14275.13364222 .00002748 00000-0 32308-3 0 797 2 32785 097.6882 322.8634 0013682 190.9327 225.2255 14.85603559347908 PRISM 1 33493U 09002B 14275.88156220 .00006969 00000-0 72316-3 0 3596 2 33493 098.2531 096.1985 0018861 092.5280 267.8131 14.90168927308219 SOHLA-1 1 33496U 09002E 14274.93879016 .00000822 00000-0 14258-3 0 4784 2 33496 098.1829 036.2128 0005178 258.8488 239.7134 14.70916009305206 TISAT-1 1 36799U 10035E 14275.82944203 .00004383 00000-0 50485-3 0 6073 2 36799 098.0169 008.6625 0013642 336.6189 023.4407 14.86178109228702 STUDSAT 1 36801U 10035G 14275.84638120 .00019636 00000-0 16227-2 0 9016 2 36801 098.0370 018.9744 0007620 292.2200 179.6627 14.98964428229244 ALMASAT-1 1 38078U 12006B 14275.43696093 .00030343 33592-5 60613-3 0 1715 2 38078 069.4684 159.5351 0575622 249.0373 162.4823 14.55363539137213 XATCOBEO 1 38082U 12006F 14243.34478676 .13583328 43697-5 37939-3 0 5637 2 38082 069.3815 097.0364 0033293 225.1799 135.4582 16.41261006136239 CUBEBUG-1 1 39153U 13018D 14275.80938964 .00002402 00000-0 33932-3 0 5357 2 39153 098.0340 355.8728 0018446 007.7579 352.3912 14.77995990 77451 ESTCUBE-1 1 39161U 13021C 14275.76329840 .00001853 00000-0 31538-3 0 5351 2 39161 098.0904 355.8463 0011410 058.1270 302.1053 14.70218216 75408 DUCHIFAT-1 1 40021U 14033M 14275.65690682 .00004616 00000-0 53694-3 0 3136 2 40021 097.9707 170.5183 0013093 314.7348 045.2848 14.85751617 15539 NANOSATCBR1 1 40024U 14033Q 14275.66439183 .00004135 00000-0 48328-3 0 3041 2 40024 097.9670 170.4864 0011987 313.8412 046.1852 14.85616446 15533 DTUSAT-2 1 40030U 14033W 14275.69289422 .00003302 00000-0 39161-3 0 3006 2 40030 097.9662 170.4380 0010963 306.0747 053.9468 14.85164442 15546 ANTELSAT 1 40034U 14033AA 14275.71436560 .00002442 00000-0 39116-3 0 3105 2 40034 097.9683 168.2045 0060271 223.1980 136.4494 14.71453945 15417 MET-2/21 1 22782U 93055A 14275.59225036 .00000048 00000-0 30135-4 0 1882 2 22782 082.5463 088.0841 0021338 325.9838 099.0737 13.83745139 64970 OKEAN-4 1 23317U 94066A 14275.51046421 .00001398 00000-0 15756-3 0 6707 2 23317 082.5385 327.2999 0022119 104.3633 321.9346 14.85756219 79041 NOAA-14 1 23455U 94089A 14275.43207706 .00000072 00000-0 60572-4 0 9305 2 23455 098.7735 356.9375 0010541 095.8421 035.2021 14.13989001 19108 NOAA-15 1 25338U 98030A 14275.45021744 .00000229 00000-0 11583-3 0 3670 2 25338 098.7602 269.1420 0010592 190.8323 284.4135 14.25476800852124 RESURS 1 25394U 98043A 14275.83867535 .00000049 00000-0 39372-4 0 7754 2 25394 098.4273 235.7473 0000668 005.8748 050.7638 14.24402129843644 FENGYUN1 1 25730U 99025A 14275.82935411 .00002545 00000-0 14067-2 0 2645 2 25730 098.9189 236.3077 0022000 160.1529 255.9768 14.12171010792715 OKEAN-0 1 25860U 99039A 14275.80660986 .00001189 00000-0 18260-3 0 3794 2 25860 098.0571 239.1182 0001950 094.7597 323.7755 14.75427020818028 NOAA-16 1 26536U 00055A 14275.42786272 .00000161 00000-0 11073-3 0 8665 2 26536 098.9792 336.1955 0009875 237.2332 122.7889 14.13039182723259 NOAA-17 1 27453U 02032A 14275.43011323 .00000213 00000-0 10900-3 0 7564 2 27453 098.3208 269.5302 0011239 213.9325 146.1137 14.24784483637959 NOAA-18 1 28654U 05018A 14275.46102501 .00000216 00000-0 14313-3 0 2758 2 28654 099.1603 257.1767 0013621 326.5934 143.2743 14.12070305482703 NOAA-19 1 33591U 09005A 14275.51455721 .00000121 00000-0 90926-4 0 4117 2 33591 098.9550 220.2786 0014183 172.7450 302.8761 14.11773353291137 HUBBLE 1 20580U 90037B 14274.65593259 .00003766 00000-0 24151-3 0 1266 2 20580 028.4708 057.0573 0003092 351.9245 125.6004 15.05829872140781 ISS 1 25544U 98067A 14275.87220488 .00014712 00000-0 25769-3 0 1885 2 25544 051.6459 285.8227 0002253 135.6034 287.5785 15.50825866908038 CO-58 1 28895U 05043F 14275.80127473 .00001170 00000-0 24129-3 0 8882 2 28895 097.8272 112.0592 0017943 035.1621 325.0761 14.62059934475970 FALCON 1 30776U 07006E 14275.13890337 .00011030 00000-0 53626-3 0 9731 2 30776 035.4282 170.9805 0002051 219.2830 265.7190 15.17703417416986 MAST 1 31126U 07012K 14274.90696646 .00001555 00000-0 34810-3 0 1680 2 31126 097.9269 250.3085 0092203 022.4483 030.2794 14.55428297395918 CAPE1 1 31130U 07012P 14275.66410786 .00002136 00000-0 47787-3 0 1748 2 31130 097.9473 247.8178 0099554 038.4673 322.3567 14.54638991395431 COMPASS 1 32787U 08021E 14275.74912611 .00004786 00000-0 52055-3 0 624 2 32787 097.6909 326.1647 0013893 179.4516 180.6718 14.88445078348189 AAUSAT2 1 32788U 08021F 14275.76760662 .00004404 00000-0 47050-3 0 507 2 32788 097.6920 327.3040 0013364 177.1702 182.9594 14.89215262348254 DO-64 1 32789U 08021G 14275.46459059 .00010612 00000-0 98478-3 0 935 2 32789 097.7109 334.5828 0012686 162.0753 322.9138 14.94538485348514 CO-66 1 32791U 08021J 14275.40201330 .00003890 00000-0 43956-3 0 446 2 32791 097.6903 324.3624 0014424 185.2468 174.8600 14.86992001347988 RS-30 1 32953U 08025A 14275.68014644 .00000010 00000-0 00000 0 0 3522 2 32953 082.5073 134.3910 0017934 285.1796 074.7306 12.43050845288616 METEOR-M 1 35865U 09049A 14275.81657941 .00000104 00000-0 66125-4 0 9550 2 35865 098.5390 319.9041 0002951 128.8754 231.2682 14.21932362261637 RS-38 1 35869U 09049E 14275.71052013 .00000080 00000-0 55278-4 0 8618 2 35869 098.5311 319.5539 0005605 136.2657 331.2953 14.22229832261652 JUGNU 1 37839U 11058B 14275.36039448 .00000506 00000-0 12852-3 0 7081 2 37839 019.9620 325.3776 0019222 084.6326 021.8108 14.12343276153728 SRMSAT 1 37841U 11058D 14274.72415459 .00000453 00000-0 10509-3 0 7104 2 37841 019.9728 350.6963 0012162 013.7916 072.9260 14.10378758153416 RAX-2 1 37853U 11061D 14275.79879008 .00012109 00000-0 80584-3 0 9241 2 37853 101.7048 356.8235 0212532 105.2575 009.8795 14.90756107158687 AUBIESAT 1 37854U 11061E 14275.82045692 .00012339 00000-0 79457-3 0 9231 2 37854 101.7089 359.1051 0209694 101.6990 015.1858 14.92252131158759 HRBE 1 37855U 11061F 14275.77308567 .00012351 00000-0 80564-3 0 9403 2 37855 101.7086 358.2252 0212253 103.5231 258.9716 14.91461230158700 RS-39 1 38051U 11062C 14275.83592740 .00644351 17700-3 18900-2 0 9793 2 38051 051.6171 033.2045 0013356 323.5407 123.4378 15.91988992151027 E-STAR 1 38079U 12006C 14275.50609770 .00227365 14572-4 20694-2 0 9990 2 38079 069.4438 065.3807 0301740 199.1716 220.2776 15.27140924139735 GOLIAT 1 38085U 12006J 14275.48904221 .00191040 10921-4 18973-2 0 4179 2 38085 069.4482 075.3521 0333894 203.7301 154.8167 15.19008507139469 HORYU-2 1 38340U 12025D 14275.71277929 .00003135 00000-0 49728-3 0 9840 2 38340 098.2720 234.8171 0011983 189.1718 170.9307 14.72861584127622 RS-40 1 38735U 12041C 14275.05208157 .00000024 00000-0 10000-3 0 7012 2 38735 082.4753 220.9018 0017866 025.5523 334.6433 12.42561125 98854 PROITERES 1 38756U 12047B 14275.77881894 .00001140 00000-0 17664-3 0 2721 2 38756 098.2271 005.8309 0013039 045.6257 314.6017 14.75130355111043 BEESAT-3 1 39134U 13015E 14275.77708710 .00011067 00000-0 74697-3 0 7276 2 39134 064.8645 157.7523 0034653 289.3238 070.4170 15.06493234 79867 BEESAT-2 1 39136U 13015G 14274.89305485 .00009055 00000-0 62686-3 0 7080 2 39136 064.8657 161.3848 0034473 288.5863 071.1517 15.05701105 79713 LO-75 1 39382U 13064C 14274.63488353 .00441937 00000-0 33934-2 0 4365 2 39382 040.4926 164.8522 0023514 275.2570 084.5699 15.69559618 48607 ZACUBE-1 1 39417U 13066B 14274.84960995 .00002426 00000-0 33004-3 0 4282 2 39417 097.7620 341.7686 0060782 257.4258 102.0082 14.78401443 46456 TRITON-1 1 39427U 13066M 14274.76725437 .00001592 00000-0 27356-3 0 2806 2 39427 097.7532 335.3352 0116787 271.6501 087.1340 14.65627599 46003 DELFIN3XT 1 39428U 13066N 14275.11137908 .00002730 00000-0 47595-3 0 2843 2 39428 097.7480 334.5650 0126388 273.2362 085.4427 14.63683808 45974 GOMX-1 1 39430U 13066Q 14275.71971399 .00001558 00000-0 30332-3 0 8734 2 39430 097.7432 332.0359 0154984 280.2866 078.0913 14.57064008 45878 MO-76 1 39436U 13066W 14275.19973343 .00024386 00000-0 23621-2 0 3600 2 39436 097.7690 347.2708 0023947 252.1901 107.6983 14.92489047 46823 LO-74 1 39440U 13066AA 14275.04051213 .00002023 00000-0 30383-3 0 2755 2 39440 097.7572 339.4293 0082655 261.4648 097.7176 14.73325220 46319 PUCPSAT-1 1 39442U 13066AC 14275.00949655 .00003775 00000-0 42829-3 0 2741 2 39442 097.7724 345.8485 0033021 254.6650 105.0971 14.86535549 45499 SHINAISAT 1 39572U 14009A 14275.16382605 .00174778 00000-0 78575-3 0 3263 2 39572 064.9955 028.7058 0021838 282.8831 077.0094 15.83011711 33955 TEIKYOSAT 1 39576U 14009E 14275.85123470 .00376292 63702-4 88826-3 0 3577 2 39576 065.0024 021.5605 0021813 288.5970 071.2817 15.96101180 34153 CO-77 1 39577U 14009F 14244.78324653 .10543803 76292-5 32273-3 0 3795 2 39577 064.9920 123.7668 0014904 269.7208 091.1897 16.43552757 29380 SPROUT 1 39770U 14029E 14275.09947881 .00002338 00000-0 29533-3 0 1495 2 39770 097.8722 010.6274 0009277 333.5289 026.5478 14.82819159 19382 POPSAT-HIP1 1 40028U 14033U 14275.74559290 .00003303 00000-0 38952-3 0 3235 2 40028 097.9720 170.5842 0013580 309.8532 050.1505 14.85374333 15546 EO-80 1 40032U 14033Y 14275.69438863 .00003381 00000-0 40105-3 0 3134 2 40032 097.9714 170.4465 0011821 306.8541 053.1613 14.85142990 15542 VELOX-1 1 40057U 14034E 14275.71290814 .00002955 00000-0 45455-3 0 3103 2 40057 098.2432 344.5159 0011681 348.8377 011.2579 14.74241794 13927 DAURIA DX 1 1 40071U 14037C 14275.88784983 .00001441 00000-0 19970-3 0 2825 2 40071 098.3924 331.3634 0008888 355.2724 004.8405 14.79632874 12737 UKUBE-1 1 40074U 14037F 14275.83522356 .00002956 00000-0 39235-3 0 2847 2 40074 098.3936 331.4445 0005391 011.3983 348.7375 14.80622586 12734 CHASQUI-1 1 40117U 98067ET 14275.87769066 .00090653 00000-0 13005-2 0 1593 2 40117 051.6477 285.1108 0004131 124.0342 300.3996 15.55366543 7016 /EX
